Overview Statistics Trail Chart Weather Telemetry Raw packets
 

This is the latest recevied weather packets stored in our database for station/object EA1HTW-13. If no packets are shown the sender has not sent any weather packets the latest 10 day(s).

<< 1 2 3 4 5 6 >>
Time Temp. Humidity Pressure Rain* Wind** Luminosity Snow
1777969035 13.89° C 81% 1009.9 hPa 2.79 mm - - -
1777968494 13.33° C 81% 1010 hPa 3.05 mm - - -
1777967954 13.33° C 82% 1009.8 hPa 3.05 mm - - -
1777967415 12.78° C 82% 1010.1 hPa 3.3 mm - - -
1777966874 12.78° C 82% 1009.8 hPa 2.79 mm - - -
1777966334 12.78° C 82% 1009.9 hPa 2.29 mm - - -
1777965795 12.78° C 82% 1010.1 hPa 1.27 mm - - -
1777965255 12.78° C 82% 1009.9 hPa 0.51 mm - - -
1777964715 12.78° C 82% 1009.7 hPa 1.02 mm - - -
1777964175 12.78° C 82% 1009.5 hPa 1.02 mm - - -
1777963634 12.22° C 86% 1009.6 hPa 1.02 mm - - -
1777963094 12.22° C 86% 1009.6 hPa 1.27 mm - - -
1777962554 12.22° C 85% 1009.6 hPa 1.27 mm - - -
1777962014 12.22° C 85% 1009.5 hPa 1.78 mm - - -
1777961474 12.22° C 85% 1009.5 hPa 2.03 mm - - -
1777960934 12.22° C 85% 1009.3 hPa 2.79 mm - - -
1777960395 12.22° C 84% 1009.5 hPa 2.79 mm - - -
1777959855 12.22° C 84% 1009.3 hPa 3.3 mm - - -
1777959315 12.22° C 84% 1009.4 hPa 3.05 mm - - -
1777958775 12.22° C 84% 1009.3 hPa 2.79 mm - - -
1777958235 12.22° C 84% 1009.2 hPa 2.29 mm - - -
1777957713 12.22° C 85% 1009.4 hPa 2.03 mm - - -
1777957155 12.22° C 85% 1009.3 hPa 1.78 mm - - -
1777956615 12.22° C 85% 1009.5 hPa 1.52 mm - - -
1777956075 12.22° C 85% 1009.2 hPa 1.27 mm - - -

* Rain latest hour (hover to see other rain measurements)
** Current wind speed in m/s (hover to see current wind gust speed)